Simultaneous Nadir Overpasses (SNOs) Predictions

Prediction of SNOs between METOP-B and TERRA Satellite Orbit:

Table of predicted SNOs for the next 14.0 days since TLE Epoch: 12/9/2017
Index Date (METOP-B) Time (METOP-B) Lat,Lon (METOP-B) SZA (METOP-B ) Date (TERRA) Time (TERRA) Lat,Lon (TERRA) SZA (TERRA ) Distance(km) Time Diff (sec)
1 12/09/2017 15:19:19 -81.31, 177.71 72.96 12/09/2017 15:20:00 -81.31, 177.68 72.94 0.73 41
2 12/09/2017 16:09:59 81.32, -14.59 107.09 12/09/2017 16:09:26 81.32, -14.59 107.08 0.43 33
3 12/12/2017 10:53:43 -81.31,-116.27 72.81 12/12/2017 10:54:14 -81.30,-116.11 72.78 2.82 31
4 12/12/2017 11:44:22 81.32, 51.77 107.28 12/12/2017 11:43:40 81.31, 51.61 107.24 2.74 42
5 12/15/2017 06:28:04 -81.31, -49.49 72.63 12/15/2017 06:28:26 -81.30, -49.63 72.65 2.59 22
6 12/15/2017 07:18:44 81.31, 118.11 107.40 12/15/2017 07:17:52 81.31, 118.07 107.37 1.08 52
7 12/18/2017 02:02:26 -81.32, 17.28 72.52 12/18/2017 02:02:38 -81.32, 17.09 72.53 3.21 12
8 12/18/2017 02:53:06 81.32,-175.16 107.51 12/18/2017 02:52:04 81.32,-175.21 107.48 0.93 62
9 12/20/2017 20:46:31 81.10, -92.61 106.43 12/20/2017 20:47:44 80.83, -91.52 106.35 35.84 73
10 12/20/2017 21:36:50 -81.31, 83.25 72.56 12/20/2017 21:36:51 -81.31, 83.31 72.56 1.08 1




NCC Satellite Simultaneous Nadir Overpasses (SNOs) Prediction Service
